CW7427 Weather Reports


time (UTC)temp
F
wind
direction
speed
knots
gust
knots
rain 1hr
in
rain 24hr
in
rain mn
in
humidity
%
barometer
mb
20260504141232 65 5 0.0 0.0 0.00 0.13 0.00 85 1014.2
20260504140721 65 5 0.0 0.0 0.00 0.13 0.00 85 1014.3
20260504140702 65 5 0.0 0.0 0.00 0.13 0.00 84 1014.3
20260504130447 66 5 0.0 0.0 0.00 0.13 0.13 82 1014.1
20260504120204 66 5 0.0 0.0 0.00 0.13 0.13 81 1014.1
20260504110540 67 10 0.0 0.9 0.00 0.13 0.13 79 1013.5
20260504100339 68 326 0.0 0.9 0.00 0.13 0.13 78 1013.0
20260504081538 68 303 0.0 0.9 0.00 0.13 0.13 79 1012.8
20260504081041 68 303 0.0 0.9 0.00 0.13 0.13 80 1012.7
20260504080537 68 303 0.0 0.9 0.00 0.13 0.13 80 1012.6
20260504080247 68 303 0.0 0.9 0.00 0.13 0.13 80 1012.8
20260504070357 68 327 0.0 0.0 0.00 0.13 0.13 82 1012.4
20260504060211 69 317 0.0 0.0 0.00 0.13 0.13 81 1012.6
20260504050534 68 5 0.0 6.1 0.00 0.13 0.13 85 1012.5
20260504050014 67 5 0.0 6.1 0.00 0.13 0.13 86 1012.6
20260504045514 67 9 0.0 0.9 0.00 0.13 0.13 86 1012.6
20260504045010 67 9 0.0 0.9 0.00 0.13 0.13 87 1012.5
20260504044458 67 9 0.0 0.9 0.00 0.13 0.13 87 1012.6
20260504043948 67 9 0.0 1.7 0.00 0.13 0.13 88 1012.6
20260504043439 67 10 0.0 1.7 0.00 0.13 0.13 88 1012.6
20260504042935 67 9 0.0 1.7 0.00 0.13 0.13 89 1012.6
20260504042433 67 10 0.0 4.3 0.00 0.13 0.13 89 1012.6
20260504042347 67 9 0.0 4.3 0.00 0.13 0.13 90 1012.6
20260504041354 67 5 0.0 0.9 0.00 0.13 0.13 90 1012.6
20260504040844 67 5 0.0 3.5 0.00 0.13 0.13 91 1012.7
20260504040658 67 5 0.0 3.5 0.00 0.13 0.13 91 1012.8
20260504040554 67 5 0.0 0.9 0.00 0.13 0.13 91 1012.9
20260504035323 67 5 0.0 1.7 0.00 0.13 0.13 91 1013.0
20260504035030 66 5 0.0 1.7 0.00 0.13 0.13 91 1013.1
20260504034530 66 223 0.0 0.9 0.00 0.13 0.13 91 1013.0
20260504033756 66 223 0.0 0.9 0.00 0.13 0.13 91 1013.2
20260504033253 65 223 0.0 0.9 0.01 0.13 0.13 91 1013.2
20260504032745 65 229 0.0 0.9 0.02 0.13 0.13 91 1013.1
20260504032234 65 229 0.0 1.7 0.02 0.13 0.13 91 1013.2
20260504031728 65 332 0.0 1.7 0.02 0.13 0.13 91 1013.5
20260504031444 65 331 0.0 0.9 0.04 0.13 0.13 91 1013.4
20260504030708 65 331 0.0 1.7 0.05 0.13 0.13 91 1013.5
20260504030641 64 330 0.0 1.7 0.06 0.13 0.13 91 1013.6
20260504025657 65 330 0.0 0.9 0.06 0.13 0.13 91 1013.8
20260504025146 65 330 0.0 0.9 0.08 0.13 0.13 91 1014.0
20260504024646 65 330 0.0 0.9 0.09 0.13 0.13 91 1014.0
20260504024401 65 330 0.0 0.9 0.09 0.13 0.13 90 1014.1
20260504023638 65 329 0.0 2.6 0.09 0.13 0.13 90 1014.3
20260504023140 65 329 0.0 2.6 0.08 0.12 0.13 90 1014.5
20260504023122 65 344 0.0 1.7 0.08 0.12 0.12 90 1014.4
20260504022402 65 344 0.0 1.7 0.09 0.11 0.11 90 1014.6
20260504021629 65 330 0.0 0.9 0.08 0.11 0.11 90 1014.8
20260504021136 65 330 0.0 0.9 0.07 0.09 0.10 90 1014.9
20260504020626 66 329 0.0 0.0 0.07 0.09 0.09 91 1015.0
20260504020122 66 329 0.0 0.0 0.06 0.08 0.08 91 1015.1
20260504015618 66 329 0.0 0.0 0.06 0.07 0.07 90 1015.1
20260504015334 66 329 0.0 0.0 0.04 0.05 0.06 91 1015.2
20260504014557 66 329 0.0 0.0 0.04 0.05 0.05 91 1015.2
20260504014042 66 329 0.0 0.0 0.04 0.04 0.04 91 1015.3
20260504013535 66 329 0.0 0.0 0.03 0.04 0.04 91 1015.3
20260504013032 67 329 0.0 0.0 0.03 0.04 0.04 91 1015.4
20260504012528 67 329 0.0 0.0 0.02 0.03 0.04 91 1015.5
20260504012012 67 329 0.0 0.0 0.02 0.03 0.03 92 1015.6
20260504011511 67 329 0.0 0.0 0.02 0.02 0.02 92 1015.7
20260504010954 67 329 0.0 0.0 0.01 0.02 0.02 92 1015.9
20260504010449 67 329 0.0 0.0 0.01 0.02 0.02 92 1015.9
20260504005950 66 329 0.0 0.0 0.00 0.01 0.02 92 1015.9
20260504005445 66 329 0.0 0.0 0.00 0.01 0.01 92 1015.9
20260504004934 66 329 0.0 0.0 0.00 0.01 0.01 92 1015.8
20260504004431 66 329 0.0 0.0 0.00 0.01 0.01 93 1015.7
20260504004134 66 329 0.0 0.0 0.00 0.01 0.01 92 1015.6
20260504003634 65 329 0.0 0.0 0.00 0.01 0.01 93 1015.6
20260504002905 65 329 0.0 0.0 0.00 0.01 0.01 93 1015.6
20260504002601 65 329 0.0 0.0 0.01 0.01 0.01 93 1015.4
20260504002446 65 329 0.0 0.0 0.01 0.01 0.01 93 1015.4
20260504001339 64 329 0.0 0.0 0.01 0.01 0.01 93 1015.5
20260504000836 64 329 0.0 0.0 0.01 0.01 0.01 93 1015.5
20260504000324 64 329 0.0 0.0 0.01 0.01 0.01 93 1015.4
20260503235802 64 329 0.0 0.0 0.01 0.01 0.01 93 1015.4
20260503235258 64 329 0.0 0.0 0.01 0.01 0.01 93 1015.4
20260503234745 64 329 0.0 0.0 0.01 0.01 0.01 93 1015.4
20260503234504 64 329 0.0 0.0 0.01 0.01 0.01 93 1015.5
20260503233738 64 329 0.0 0.0 0.01 0.01 0.01 93 1015.7
20260503233450 64 329 0.0 0.0 0.00 0.00 0.00 93 1015.7
20260503232716 64 329 0.0 0.0 0.00 0.00 0.00 93 1015.9
20260503232214 64 329 0.0 0.0 0.00 0.00 0.00 93 1016.0
20260503231713 64 329 0.0 0.0 0.00 0.00 0.00 93 1016.0
20260503231146 64 329 0.0 0.0 0.00 0.00 0.00 94 1016.0
20260503230638 64 329 0.0 0.0 0.00 0.00 0.00 93 1016.0
20260503230339 64 329 0.0 0.0 0.00 0.00 0.00 93 1015.8
20260503225557 64 329 0.0 0.0 0.00 0.00 0.00 94 1015.6
20260503225045 64 329 0.0 0.0 0.00 0.00 0.00 94 1015.6
20260503224754 64 329 0.0 0.0 0.00 0.00 0.00 94 1015.5
20260503224026 64 329 0.0 0.0 0.00 0.00 0.00 94 1015.3
20260503223746 64 329 0.0 0.0 0.00 0.00 0.00 94 1015.3
20260503222958 63 329 0.0 0.0 0.00 0.00 0.00 94 1015.2
20260503222445 63 329 0.0 0.0 0.00 0.00 0.00 93 1015.1
20260503221936 63 329 0.0 0.0 0.00 0.00 0.00 93 1015.0
20260503221643 63 329 0.0 0.0 0.00 0.00 0.00 93 1014.9
20260503220924 63 329 0.0 0.0 0.00 0.00 0.00 93 1014.9
20260503220423 63 329 0.0 0.0 0.00 0.00 0.00 93 1014.9
20260503215915 63 329 0.0 0.0 0.00 0.00 0.00 94 1015.0
20260503215359 62 329 0.0 0.0 0.00 0.00 0.00 93 1014.8
20260503214854 62 329 0.0 0.0 0.00 0.00 0.00 93 1014.8
20260503214341 62 329 0.0 0.0 0.00 0.00 0.00 93 1014.8
20260503213838 62 329 0.0 0.0 0.00 0.00 0.00 93 1014.6
20260503213604 62 329 0.0 0.0 0.00 0.00 0.00 93 1014.5
20260503212837 62 329 0.0 0.0 0.00 0.00 0.00 93 1014.4
20260503212321 62 329 0.0 0.0 0.00 0.00 0.00 93 1014.5
20260503211758 61 329 0.0 0.0 0.00 0.00 0.00 93 1014.6
20260503211714 61 329 0.0 0.0 0.00 0.00 0.00 93 1014.5
20260503211334 61 329 0.0 0.0 0.00 0.00 0.00 93 1014.5
20260503210457 61 329 0.0 0.0 0.00 0.00 0.00 93 1014.4
20260503205724 61 329 0.0 0.0 0.00 0.00 0.00 93 1014.4
20260503205214 61 329 0.0 0.0 0.00 0.00 0.00 93 1014.3
20260503204705 60 329 0.0 0.0 0.00 0.00 0.00 92 1014.4
20260503204412 60 329 0.0 0.0 0.00 0.00 0.00 92 1014.4
20260503203850 60 329 0.0 0.0 0.00 0.00 0.00 92 1014.3
20260503203118 60 329 0.0 0.0 0.00 0.00 0.00 92 1014.4
20260503202551 60 329 0.0 0.0 0.00 0.00 0.00 92 1014.3
20260503202310 60 329 0.0 0.0 0.00 0.00 0.00 92 1014.2
20260503201539 60 329 0.0 0.0 0.00 0.00 0.00 92 1014.1
20260503201039 60 329 0.0 0.0 0.00 0.00 0.00 92 1013.9
20260503200753 60 329 0.0 0.0 0.00 0.00 0.00 92 1013.8
20260503200021 60 329 0.0 0.0 0.00 0.00 0.00 92 1013.8
20260503195517 60 329 0.0 0.0 0.00 0.00 0.00 92 1013.7
20260503195013 60 329 0.0 0.0 0.00 0.00 0.00 92 1013.7
20260503194707 60 329 0.0 0.0 0.00 0.00 0.00 92 1013.7
20260503193937 60 329 0.0 0.0 0.00 0.00 0.00 92 1013.6
20260503193427 60 329 0.0 0.0 0.00 0.00 0.00 92 1013.4
20260503192847 60 329 0.0 0.0 0.00 0.00 0.00 92 1013.5
20260503192338 60 329 0.0 0.0 0.00 0.00 0.00 92 1013.5
20260503191821 60 329 0.0 0.0 0.00 0.00 0.00 92 1013.5
20260503191506 60 329 0.0 0.0 0.00 0.00 0.00 92 1013.5
20260503190737 60 329 0.0 0.0 0.00 0.00 0.00 92 1013.6
20260503190209 60 329 0.0 0.0 0.00 0.00 0.00 92 1013.6
20260503185650 60 329 0.0 0.0 0.00 0.00 0.00 92 1013.6
20260503185143 60 329 0.0 0.0 0.00 0.00 0.00 92 1013.6
20260503184637 60 329 0.0 0.0 0.00 0.00 0.00 91 1013.6
20260503184337 60 329 0.0 0.0 0.00 0.00 0.00 91 1013.7
20260503183606 60 329 0.0 0.0 0.00 0.00 0.00 91 1013.7
20260503183051 60 329 0.0 0.0 0.00 0.00 0.00 91 1013.7
20260503182541 60 329 0.0 0.0 0.00 0.00 0.00 91 1013.7
20260503182036 60 329 0.0 0.0 0.00 0.00 0.00 91 1013.6
20260503181535 60 329 0.0 0.0 0.00 0.00 0.00 91 1013.6
20260503181035 60 329 0.0 0.0 0.00 0.00 0.00 91 1013.5
20260503180519 60 329 0.0 0.0 0.00 0.00 0.00 91 1013.5
20260503180002 60 329 0.0 0.0 0.00 0.00 0.00 90 1013.5
20260503175439 60 329 0.0 0.0 0.00 0.00 0.00 90 1013.6
20260503174941 60 329 0.0 0.0 0.00 0.00 0.00 90 1013.6
20260503174437 60 329 0.0 0.0 0.00 0.00 0.00 90 1013.6
20260503174154 60 329 0.0 0.0 0.00 0.00 0.00 90 1013.7
20260503173640 60 329 0.0 0.0 0.00 0.00 0.00 90 1013.6
20260503172907 60 329 0.0 0.0 0.00 0.00 0.00 90 1013.6
20260503172359 60 329 0.0 0.0 0.00 0.00 0.00 90 1013.7
20260503171815 60 329 0.0 0.0 0.00 0.00 0.00 90 1013.7
20260503171502 60 329 0.0 0.0 0.00 0.00 0.00 90 1013.7
20260503170636 60 329 0.0 0.0 0.00 0.00 0.00 90 1013.8
20260503170136 60 329 0.0 0.0 0.00 0.00 0.00 90 1013.9
20260503150946 61 329 0.0 0.0 0.00 0.00 0.00 87 1014.6
20260503150144 61 329 0.0 0.0 0.00 0.00 0.00 88 1014.8